Location: Acequia del Cap
(41.7000°N, 0.6167°E)
Time: 15:36:01
(UTC+00:00)

COSMOS 2428 - Pass Details

Date: 07 August 2020
Orbit: 844 x 859 km, 70.9° (Epoch: 23 September)

Event Time Altitude Azimuth Distance (km) Brightness Sun altitude
Rises 00:21:39 0° 338° (NNW) 3,432 6.7 -31.8°
Reaches altitude 10° 00:24:08 10° 341° (NNW) 2,494 5.9 -31.8°
Enters shadow 00:29:10 60° 27° (NNE) 982 3.1 -31.7°
